Regional Weather Roundup
Issued by NWS Cleveland, OH

Home | Current Version | Previous Version | Text Only | Print | Product List | Glossary Off
Versions: 1 2 3 4 5 6 7 8 9 10 11 12 13 14 15 16 17 18 19 20 21 22 23 24 25 26 27 28 29 30 31 32 33 34 35 36 37 38 39 40 41 42 43 44 45 46 47 48 49 50

000
ASUS41 KCLE 290512
RWRCLE
OHIO REGIONAL WEATHER ROUNDUP
NATIONAL WEATHER SERVICE WILMINGTON, OH
100 AM EDT SAT APR 29 2017

NOTE: "FAIR" INDICATES FEW OR NO CLOUDS BELOW 12,000 FEET WITH NO
SIGNIFICANT WEATHER AND/OR OBSTRUCTIONS TO VISIBILITY.

OHZ001>008-015>018-024>027-034-035-043-044-290600-
   NORTHWEST OHIO

CITY           SKY/WX    TMP DP  RH WIND       PRES   REMARKS
DEFIANCE       LGT RAIN  52  50  93 NE6       29.97S FOG
FINDLAY        CLOUDY    58  53  84 NE3       29.94R
TOLEDO EXPRESS CLOUDY    53  53 100 CALM      29.97S
TOLEDO EXEC    LGT RAIN  56  52  86 NE3       29.99R FOG
LIMA           CLOUDY    57  55  93 E3        29.92F
$$

OHZ009>014-019>023-028>033-038-089-290600-
   NORTHEAST OHIO

CITY           SKY/WX    TMP DP  RH WIND       PRES   REMARKS
CLE-HOPKINS    CLOUDY    57  52  83 S8        29.98R
CLE-LAKEFRONT  CLOUDY    57  53  86 SE12      29.94S
CUY CO. ARPT   NOT AVBL
LORAIN-ELYRIA  RAIN      55  51  86 S10       29.98R
ASHTABULA      MOCLDY    55  52  89 S7        29.99F
AKRON-CANTON   CLOUDY    56  51  84 SE16      29.99R
WOOSTER        CLOUDY    54  51  90 SE13      29.98R
MANSFIELD      MOCLDY    55  53  93 SE15      29.96R
YOUNGSTOWN     TSTM      55  51  86 SE10G20   29.99F
$$

OHZ042-051>053-060>062-070>072-077>081-290600-
  SOUTHWEST OHIO

CITY           SKY/WX    TMP DP  RH WIND       PRES   REMARKS
CINC-COVINGTON LGT RAIN  64  63  96 NE7       29.93R
CINC-LUNKEN    LGT RAIN  63  63 100 N10       29.94R
HAMILTON       LGT RAIN  61  61 100 E6        29.94R
DAYTON         CLOUDY    58  56  93 SE15      29.94F
WRIGHT-PAT AFB LGT RAIN  58  58 100 SE7G22    29.94F
DAYTON GENERAL LGT RAIN  58  56  93 E13G20    29.93F
WILMINGTON     TSTM      57  57 100 E12       29.94F
$$

OHZ036-037-039>041-045>050-054>059-063>069-073>076-082>088-290600-
  CENTRAL AND SOUTHEAST OHIO

CITY           SKY/WX    TMP DP  RH WIND       PRES   REMARKS
COLUMBUS       LGT RAIN  58  55  90 SE9       29.97S
OSU AIRPORT    CLOUDY    57  55  93 SE9G21    29.97S
BOLTON FIELD   CLOUDY    57  55  93 SE15G22   29.97F
RICKENBACK AFB TSTM      56  55  95 E10       29.96F
NEWARK         CLOUDY    57 N/A N/A E9        29.99S
MARION         MOCLDY    57  53  86 SE12      29.95F
LANCASTER      LGT RAIN  59  55  87 E5        30.02R
ZANESVILLE     FAIR      57  53  86 E6        30.01R
NEW PHILLY     MOCLDY    56  52  86 SE13      30.02F
$$




USA.gov is the U.S. government's official web portal to all federal, state and local government web resources and services.